Simultaneous Nadir Overpasses (SNOs) Predictions

Prediction of SNOs between METOP-A and TERRA Satellite Orbit:

Table of predicted SNOs for the next 14.0 days since TLE Epoch: 3/14/2015
Index Date (METOP-A) Time (METOP-A) Lat,Lon (METOP-A) SZA (METOP-A ) Date (TERRA) Time (TERRA) Lat,Lon (TERRA) SZA (TERRA ) Distance(km) Time Diff (sec)
1 03/15/2015 23:34:28 81.33,-125.71 85.87 03/15/2015 23:34:34 81.33,-125.67 85.88 0.82 6
2 03/16/2015 00:25:08 -81.33, 41.98 94.10 03/16/2015 00:24:01 -81.33, 41.86 94.15 2.18 67
3 03/18/2015 19:08:50 81.33, -59.31 84.79 03/18/2015 19:08:52 81.34, -59.16 84.81 2.71 2
4 03/18/2015 19:59:30 -81.33, 108.42 95.18 03/18/2015 19:58:19 -81.33, 108.40 95.22 0.50 71
5 03/21/2015 13:52:32 -81.33,-160.47 96.32 03/21/2015 13:53:44 -81.33,-160.56 96.29 1.62 72
6 03/
